Home > Weather > Chelyabinsk > Past weeks

Flag for Russia Past Weather in Chelyabinsk, Russia — Yesterday and Last 2 Weeks

Now
66 °F

Passing clouds.


Feels Like: 66 °F
Forecast: 56 / 82 °F
Wind: 3 mph from Southwest

Location: Chelyabinsk-Balandino

Current Time: May 27, 2016 at 11:25:24 PM

Latest Report: May 27, 2016 at 11:00 PM


Visibility: N/A

Pressure: 30.01 "Hg

Humidity: 52%

Dew Point: 48 °F

Location of ChelyabinskLocation

Past Weather in Chelyabinsk — Graph

°F

Chelyabinsk Temperature Yesterday

Maximum temperature yesterday: 77 °F (at 2:30 PM)
Minimum temperature yesterday: 54 °F (at 3:30 AM)
Average temperature yesterday: 66 °F

High & Low Weather Summary for the Past Weeks

 TemperatureHumidityPressure
High82 °F (May 22, 3:30 PM)100% (May 13, 11:30 PM)30.39 "Hg (May 13, 11:30 PM)
Low28 °F (May 16, 3:00 AM)15% (May 22, 4:30 PM)29.62 "Hg (May 13, 8:30 AM)
Average58 °F47%30.10 "Hg
* Reported May 12 10:00 PM — May 27 10:00 PM, Chelyabinsk, Weather by CustomWeather, © 2016

Note: Actual official high and low records may vary slightly from our data, if they occured in-between our weather recording intervals... More about our weather records

Advertising

Chelyabinsk Weather History for the Previous 24 Hours

Scroll right to see more
 ConditionsComfort  
Time TempWeatherWind HumidityBarometerVisibility
10:00 PM
Fri, May 27
66 °FSunny.3 mph56%30.04 "Hg10 mi
9:30 PM68 °FSunny.3 mph53%30.01 "Hg10 mi
9:00 PM72 °FSunny.3 mph44%30.01 "Hg10 mi
8:30 PM73 °FSunny.1 mph41%30.01 "Hg10 mi
8:00 PM73 °FSunny.3 mph44%30.01 "Hg10 mi
7:30 PM75 °FSunny.1 mph39%30.01 "Hg10 mi
7:00 PM77 °FSunny.1 mph36%30.01 "Hg10 mi
6:30 PM77 °FPassing clouds.3 mph36%30.01 "HgN/A
6:00 PM79 °FPassing clouds.3 mph34%30.01 "HgN/A
5:30 PM77 °FScattered clouds.3 mph32%30.01 "HgN/A
5:00 PM77 °FScattered clouds.8 mph34%30.04 "HgN/A
4:30 PM79 °FScattered clouds.6 mph32%30.04 "HgN/A
4:00 PM77 °FScattered clouds.6 mph34%30.04 "HgN/A
3:30 PM79 °FScattered clouds.8 mph34%30.04 "HgN/A
3:00 PM77 °FScattered clouds.3 mph36%30.04 "HgN/A
2:30 PM77 °FScattered clouds.6 mph34%30.04 "HgN/A
2:00 PM77 °FScattered clouds.6 mph39%30.04 "HgN/A
1:30 PM77 °FPassing clouds.3 mph36%30.04 "HgN/A
1:00 PM75 °FPassing clouds.3 mph41%30.04 "HgN/A
12:30 PM77 °FPassing clouds.1 mph39%30.04 "HgN/A
12:00 PM75 °FPassing clouds.6 mph39%30.04 "HgN/A
11:30 AM73 °FSunny.3 mph41%30.04 "Hg10 mi
11:00 AM73 °FPassing clouds.3 mph44%30.04 "HgN/A
10:30 AM72 °FSunny.3 mph47%30.07 "Hg10 mi
10:00 AM70 °FSunny.1 mph53%30.07 "Hg10 mi
9:30 AM70 °FSunny.1 mph53%30.07 "Hg10 mi
9:00 AM68 °FSunny.1 mph56%30.07 "Hg10 mi
8:30 AM66 °FSunny.1 mph60%30.04 "Hg10 mi
8:00 AM66 °FSunny.1 mph60%30.04 "Hg10 mi
7:30 AM63 °FSunny.1 mph68%30.04 "Hg10 mi
7:00 AM63 °FSunny.No wind68%30.04 "Hg10 mi
6:30 AM57 °FSunny.1 mph88%30.04 "Hg10 mi
6:00 AM55 °FSunny.3 mph88%30.04 "Hg10 mi
5:30 AM54 °FSunny.6 mph94%30.04 "Hg10 mi
5:00 AM52 °FPassing clouds.6 mph94%30.01 "Hg4 mi
4:30 AM52 °FFog.1 mph94%30.01 "Hg4 mi
4:00 AM54 °FPassing clouds.1 mph88%30.01 "Hg4 mi
3:30 AM54 °FPassing clouds.1 mph88%30.01 "HgN/A
3:00 AM59 °FPassing clouds.1 mph77%30.01 "HgN/A
2:30 AM57 °FThunderstorms. Passing clouds.6 mph88%30.01 "Hg4 mi
2:00 AM55 °FThunderstorms. Passing clouds.6 mph88%30.01 "HgN/A
1:30 AM57 °FPassing clouds.1 mph82%30.01 "HgN/A
1:00 AM57 °FThunderstorms. Passing clouds.1 mph82%30.01 "HgN/A
12:30 AM59 °FPassing clouds.1 mph82%30.01 "HgN/A
12:00 AM59 °FThunderstorms. Passing clouds.1 mph72%30.01 "HgN/A
11:30 PM
Thu, May 26
61 °FSprinkles. Passing clouds.3 mph68%30.01 "HgN/A
11:00 PM59 °FPassing clouds.1 mph72%30.01 "HgN/A
Weather by CustomWeather, © 2016

See weather overviewHow to use our weather pages